STARLINK-2055 (47358 NORAD) Tracking and Keplerian Element Data

This shows tracking and keplerian element data for the satellite.

Feedback or suggestion? Click here.




ElementValue
Catalog47358
NameSTARLINK-2055
Epoch Orbit188
Epoch Day99.91667824
Epoch Year2021
RAAN181.7143
Inclination53.0533
Eccentricity0.0004026
Argument of Perigee359.6346
Mean Anonmoly60.4177
Mean Motion15.62661578
Decay Rate7.565E-05
L11 47358U 21005K 21099.91667824 .00007565 00000-0 88691-4 0 9998
L22 47358 53.0533 181.7143 0004026 359.6346 60.4177 15.62661578 1880

Live tracking and technical data element details for STARLINK-2055 (NORAD 47358). STARLINK-2055 can be tracked NOW for your location showing map with azimuth and elevation plus other details from your city location.

Track the satellite on the map from your city or location and see movement details for azimuth, elevation, latitude, longitude, range, height, and movement on the map or in text.







IsCatalogInMostPopularTable: catalog: 47358, numindb: 14
Update: records affected: 1



GetName: 47358 STARLINK-2055

Hit Count: updated at: Sat, 10 Apr 2021 18:56:41 GMT